This demonstration page uses our WeatherBlox Daily Observations layout. Learn more.

Left ArrowRight Arrow

Hourly Observations for January 6, 2022

Temp ( °F °C ) Dew Point ( °F °C ) Humidity (%) Winds ( mph kmh ) Pressure ( in mb ) Visibility ( mi km ) Precip ( " mm )
12:53 am 00:53 Clear with Mist and Fog 38 3.3 37 2.8 97 97 Calm 30.00 1016 5 8 0.00 0.00
1:39 am 01:39 Mostly Cloudy 39 3.9 37 2.8 93 93 Calm 30.04 1017 8 13 0.00 0.00
1:48 am 01:48 Partly Cloudy 39 4 37 3 93 93 Calm 30.04 1017 8 13 0.00 0.00
1:53 am 01:53 Partly Cloudy 38 3.3 37 2.8 97 97 Calm 30.01 1016 8 13 0.00 0.00
2:53 am 02:53 Mostly Clear with Mist and Fog 37 2.8 35 1.7 93 93 Calm 30.01 1016 5 8 0.00 0.00
3:53 am 03:53 Mostly Clear with Mist and Fog 36 2.2 35 1.7 97 97 Calm 30.01 1016 4 6 0.00 0.00
4:27 am 04:27 Mostly Cloudy with Light Rain 37 2.8 35 1.7 93 93 Calm 30.05 1017 7 11 0.00 0.00
4:53 am 04:53 Mostly Cloudy with Light Rain 35 1.7 34 1.1 96 96 NNE 3 6 30.00 1016 4 6 0.00 0.00
5:00 am 05:00 Clear with Light Rain 36 2.2 34 1.1 93 93 Calm 30.04 1017 6 10 0.00 0.00
5:53 am 05:53 Clear with Mist and Fog 37 2.8 35 1.7 93 93 Calm 30.00 1016 6 10 0.00 0.00
6:28 am 06:28 Clear with Mist and Fog 34 1.1 33 0.6 97 97 Calm 30.03 1017 2 3 0.00 0.00
6:35 am 06:35 Mostly Clear with Mist and Fog 35 1.7 33 0.6 93 93 Calm 30.03 1017 2 3 0.00 0.00
6:37 am 06:37 Mostly Clear with Mist and Fog 35 1.7 34 1.1 96 96 Calm 30.03 1017 3 5 0.00 0.00
6:53 am 06:53 Mostly Clear with Mist and Fog 35 1.7 34 1.1 96 96 Calm 29.99 1016 2 3 0.00 0.00
7:01 am 07:01 Partly Cloudy with Light Rain 33 0.6 32 0 96 96 Calm 30.02 1017 3 5 0.00 0.00
7:53 am 07:53 Partly Cloudy with Mist and Fog 35 1.7 35 1.7 100 100 undefined N/A 29.95 1014 3 5 0.00 0.00
8:00 am 08:00 Mostly Cloudy with Fog 36 2.2 35 1.7 97 97 Calm 29.99 1015 1 1 0.00 0.00
8:07 am 08:07 Mostly Cloudy with Light Rain 35 1.7 35 1.7 100 100 W 3 6 29.99 1016 0 0 0.00 0.00
8:17 am 08:17 Mostly Cloudy with Fog 35 1.7 35 1.7 100 100 Calm 29.98 1015 N/A 0.00 0.00
8:24 am 08:24 Mostly Cloudy with Fog 36 2.2 36 2.2 100 100 NW 3 6 29.98 1015 0 0 0.00 0.00
8:53 am 08:53 Mostly Cloudy with Fog 37 2.8 37 2.8 100 100 Calm 29.96 1015 1 1 0.00 0.00
9:42 am 09:42 Mostly Cloudy with Mist and Fog 40 4.4 40 4.4 100 100 S 3 6 30.01 1016 2 3 0.00 0.00
9:46 am 09:46 Partly Cloudy with Mist and Fog 41 5 41 5 100 100 S 3 6 30.00 1016 4 6 0.00 0.00
9:53 am 09:53 Partly Cloudy with Mist and Fog 42 5.6 42 5.6 100 100 SE 5 7 29.97 1015 5 8 0.00 0.00
10:53 am 10:53 Cloudy 47 8.3 42 5.6 83 83 VRB 3 6 29.96 1015 9 14 0.00 0.00
11:53 am 11:53 Cloudy 53 11.7 44 6.7 72 72 S 9 15 29.91 1013 10 16 0.00 0.00
12:53 pm 12:53 Cloudy 57 13.9 45 7.2 64 64 S 9 15 29.85 1011 10 16 0.00 0.00
1:53 pm 13:53 Mostly Cloudy 61 16.1 46 7.8 58 58 S 14 22 29.80 1009 10 16 0.00 0.00
2:53 pm 14:53 Cloudy with Light Rain 62 16.7 46 7.8 56 56 SSW 9 15 29.78 1008 10 16 0.00 0.00
3:53 pm 15:53 Cloudy with Light Rain 57 13.9 52 11.1 83 83 WSW 6 9 29.80 1009 8 13 0.05 1.27
4:53 pm 16:53 Cloudy 56 13.3 53 11.7 90 90 W 8 13 29.84 1010 10 16 0.04 1.02
5:53 pm 17:53 Cloudy 55 12.8 52 11.1 90 90 WNW 18 30 29.85 1011 10 16 0.01 0.25
6:53 pm 18:53 Cloudy 48 8.9 45 7.2 89 89 WNW 17 28 29.91 1013 10 16 0.00 0.00
7:00 pm 19:00 Cloudy 47 8.3 44 6.7 90 90 NW 15 24 29.92 1013 10 16 0.00 0.00
7:53 pm 19:53 Cloudy 44 6.7 40 4.4 85 85 NW 13 20 29.94 1014 10 16 0.00 0.00
8:01 pm 20:01 Cloudy 43 6.1 40 4.4 89 89 NNW 15 24 29.96 1015 10 16 0.00 0.00
8:53 pm 20:53 Cloudy 40 4.4 37 2.8 89 89 NW 14 22 29.98 1015 10 16 0.00 0.00
9:10 pm 21:10 Cloudy 40 4.4 36 2.2 86 86 NW 14 22 30.01 1016 10 16 0.00 0.00
9:53 pm 21:53 Cloudy 39 3.9 33 0.6 79 79 NW 15 24 30.01 1016 10 16 0.00 0.00
10:53 pm 22:53 Cloudy 37 2.8 30 -1.1 76 76 NW 15 24 30.04 1017 10 16 0.00 0.00
11:53 pm 23:53 Cloudy 36 2.2 30 -1.1 79 79 NW 12 19 30.05 1018 10 16 0.00 0.00

Powered by AerisWeather